P/2002 T5 ( LINEAR ) 2021

Japanese version
Home page
Updated on July 8, 2017

---------------------------------------------------------------------

* Profile

* Orbital Elements

Epoch 2021 Dec. 12.0 TT = JDT 2459560.5
T 2021 Dec. 15.39093 TT                                 MPC
q   3.9379137            (2000.0)            P               Q
n   0.05303729     Peri.  326.73360     -0.06197502     -0.90087227
a   7.0158744      Node   123.09145     +0.99049022     -0.10849146
e   0.4387138      Incl.   30.85158     +0.12283413     +0.42030793
P  18.6
From 943 observations 2002 Oct. 5-2005 Apr. 5, mean residual 0".6.

* Finding Charts

* Magnitudes Graph

        m1 = 8.0 + 5 log d + 10.0

---------------------------------------------------------------------

The orbital elements are published on M.P.E.C. 2013-B90.
The charts are made with StellaNavigator Ver.10 (AstroArts).
The magnitudes graphs are made with Comet for Windows.

---------------------------------------------------------------------

Copyright(C) Seiichi Yoshida (comet@aerith.net). All rights reserved.